Regional Weather Roundup
Issued by NWS

Home | Current Version | Previous Version | Text Only | Print | Product List | Glossary On
Versions: 1 2 3 4 5 6 7 8 9 10 11 12 13 14 15 16 17 18 19 20 21 22 23 24 25 26 27 28 29 30 31 32 33 34 35 36 37 38 39 40 41 42 43 44 45 46 47 48 49 50
000
ASUS43 KLSX 202257
RWRMO

WEATHER SUMMARY FOR MISSOURI
NATIONAL WEATHER SERVICE SPRINGFIELD MO
500 PM CST MON FEB 20 2017

NOTE: "FAIR" INDICATES FEW OR NO CLOUDS BELOW 12,000 FEET WITH NO
       SIGNIFICANT WEATHER AND/OR OBSTRUCTIONS TO VISIBILITY.
       CURRENT SKY AND/OR WEATHER CONDITIONS ARE NOT AVAILABLE FOR
       CHILLICOTHE AND FARMINGTON.

MOZ001>031-035>038-043-044-053-054-210000-
...NORTHERN AND WESTERN MISSOURI...

CITY           SKY/WX    TMP DP  RH WIND       PRES   REMARKS
KANSAS CTY INT CLOUDY    64  51  62 SW14      29.85R
LEE`S SUMMIT   CLOUDY    66  53  63 SW15      29.87R
ST JOSEPH      PTSUNNY   64  53  67 S13       29.83R
CHILLICOTHE      N/A     65  58  78 S6        29.85S

$$
MOZ066>068-077>081-088>096-101>105-210000-
...SOUTHWEST MISSOURI...

CITY           SKY/WX    TMP DP  RH WIND       PRES   REMARKS
SPRINGFIELD    CLOUDY    66  55  67 W12       29.90S
JOPLIN         CLOUDY    64  55  72 S12       29.91F
BRANSON        PTSUNNY   66  55  68 S7        29.93R

$$
MOZ032>034-039>042-045>050-055>058-069>072-210000-
...CENTRAL MISSOURI...

CITY           SKY/WX    TMP DP  RH WIND       PRES   REMARKS
COLUMBIA       NOT AVBL
JEFFERSON CITY CLOUDY    74  57  55 S9        29.85S
ROLLA          PTCLDY    72  56  57 S16       29.88S
SEDALIA        CLOUDY    68  58  70 S17G23    29.89R
WARRENSBURG    CLOUDY    64  54  68 SW9       29.87R

$$
MOZ051-052-059>065-210000-
...EAST CENTRAL MISSOURI...

CITY           SKY/WX    TMP DP  RH WIND       PRES   REMARKS
ST LOUIS INTL  CLOUDY    73  53  49 SE16G23   29.91S

$$
MOZ072>076-082>087-097>100-106>115-210000-
...SOUTH CENTRAL AND SOUTHEAST MISSOURI...

CITY           SKY/WX    TMP DP  RH WIND       PRES   REMARKS
CAPE GIRARDEAU CLOUDY    69  55  60 SE12      29.98S
POPLAR BLUFF   CLEAR     71  57  61 S10       29.95S
WEST PLAINS    MOCLDY    72  58  61 S9        29.92F

$$



USA.gov is the U.S. government's official web portal to all federal, state and local government web resources and services.